Regional Weather Roundup
Issued by NWS

Home | Current Version | Previous Version | Text Only | Print | Product List | Glossary On
Versions: 1 2 3 4 5 6 7 8 9 10 11 12 13 14 15 16 17 18 19 20 21 22 23 24 25 26 27
000
ASUS44 KBMX 281910
RWRAL

ALABAMA REGIONAL WEATHER ROUNDUP
NATIONAL WEATHER SERVICE BIRMINGHAM AL
200 PM CDT THU JUL 28 2016

NOTE: "FAIR" INDICATES FEW OR NO CLOUDS BELOW 12,000 FEET
WITH NO SIGNIFICANT WEATHER AND/OR OBSTRUCTIONS TO VISIBILITY.

THE REMARK "TC" DENOTES TEMPERATURE IN DEGREES CELSIUS.

ALZ001>011-014-016>018-020-282000-
NORTH ALABAMA

CITY           SKY/WX    TMP DP  RH WIND       PRES   REMARKS
MUSCLE SHOALS  CLOUDY    83  73  72 SW7       29.96F
HUNTSVILLE     HVY RAIN  77  73  87 W13G22    29.97S FOG
DECATUR        CLOUDY    77  74  90 SW12      29.97S
HALEYVILLE     RAIN      73  72  96 SW7       30.03S
GADSDEN        PTSUNNY   87  74  64 SW8G16      N/A  HX  95
$$

ALZ012-013-022-023-030>036-040>044-282000-
WEST CENTRAL ALABAMA

CITY           SKY/WX    TMP DP  RH WIND       PRES   REMARKS
TUSCALOOSA     PTSUNNY   84  74  71 W14G21    30.00F HX  91
$$

ALZ015-024>027-033>036-040>044-282000-
CENTRAL ALABAMA

CITY           SKY/WX    TMP DP  RH WIND       PRES   REMARKS
BIRMINGHAM     PTSUNNY   85  72  65 SW20G29   30.02F HX  91
MONTGOMERY     PTSUNNY   92  68  45 SW12      30.01F HX  96
SHELBY CO ARPT CLOUDY    84  73  69 SW9       30.02F HX  90
MAXWELL AFB    NOT AVBL
GREENVILLE     FAIR      93  67  42 SW12G20   30.03F HX  96
$$

ALZ019-021-028-029-037-038-045>048-282000-
EAST CENTRAL ALABAMA

CITY           SKY/WX    TMP DP  RH WIND       PRES   REMARKS
ANNISTON       PTSUNNY   88  70  55 SW15G28   29.99F HX  93
ALEXANDER CITY MOSUNNY   88  75  65 SW14      30.03S HX  98
AUBURN         MOSUNNY   91  69  48 W14G24    30.04F HX  96
$$

ALZ051>064-282000-
SOUTHWEST ALABAMA

CITY           SKY/WX    TMP DP  RH WIND       PRES   REMARKS
MOBILE         PTSUNNY   90  74  59 S13       30.04F HX  99
BROOKLEY FIELD MOSUNNY   90  78  68 SE14      30.05F HX 104
EVERGREEN      SUNNY     93  72  50 SW9       30.04F HX 101
$$

ALZ049-050-065>069-282000-
SOUTHEAST ALABAMA

CITY           SKY/WX    TMP DP  RH WIND       PRES   REMARKS
DOTHAN         MOSUNNY   92  71  50 S8        30.07F HX  98
OZARK          MOSUNNY   93  73  52 SW9       30.03  HX 102
TROY           MOSUNNY   91  69  48 SW13      30.04F HX  96
EUFAULA        FAIR      95  67  39 VRB7      30.02F HX  99
$$




USA.gov is the U.S. government's official web portal to all federal, state and local government web resources and services.